GFSFLT2_prec_cloud_078.txt.gz
Cloud_Cover
100 100 100 80 87 100 100 7 60 89 100 100 100 100 88 79 63 85 98 100 100 100 100 100 100 100 100
100 100 98 100 100 100 79 14 16 5 8 27 100 100 100 100 99 33 96 100 100 100 100 100 100 100 100
100 100 100 100 8 5 4 0 4 4 5 33 96 94 45 32 24 44 10 17 89 100 98 100 100 100 100
100 100 100 95 25 5 3 5 0 0 0 3 33 55 65 23 5 5 51 23 52 100 100 100 94 100 100
100 100 100 100 27 0 4 1 0 0 0 2 2 2 1 1 4 5 5 84 92 90 100 90 59 66 97
100 100 100 35 5 5 1 5 5 2 0 0 0 5 5 5 5 5 5 5 5 5 11 48 92 100 96
100 100 100 46 5 6 5 6 5 0 0 0 0 1 5 5 5 5 5 5 5 5 5 14 6 5 12
100 100 100 5 5 5 5 5 4 0 0 5 5 5 5 5 5 5 13 10 11 5 5 6 5 5 5
100 100 39 5 5 5 5 5 10 5 5 5 5 5 5 5 5 5 5 5 5 5 17 18 14 88 93
100 100 60 67 5 5 5 16 56 22 8 7 5 8 38 5 8 5 5 5 5 5 5 5 5 8 6
100 100 100 86 5 5 5 5 13 80 96 50 68 19 68 67 5 5 8 5 5 5 5 5 17 42 100
100 100 100 95 58 8 20 5 16 76 96 100 96 89 96 88 24 6 5 5 6 8 69 98 79 82 93
100 100 100 100 100 94 10 92 100 100 100 100 100 100 100 100 93 76 94 10 5 28 12 18 72 61 42
100 100 100 100 77 50 34 5 20 45 23 96 100 90 93 100 100 100 100 62 32 5 5 5 35 99 100
100 100 100 56 48 56 45 59 52 33 14 5 42 23 52 54 88 93 80 28 5 5 21 31 80 100 100
98 94 74 82 31 18 57 68 81 62 61 50 35 56 32 5 6 55 45 5 5 5 74 87 69 13 5
100 100 97 59 58 53 58 63 66 69 60 55 65 95 100 100 8 6 21 70 78 70 22 5 6 5 5

GFSFLT2_prec_cloud_084.txt.gz
Cloud_Cover
100 100 100 100 67 100 43 39 5 100 100 100 100 100 100 100 92 95 100 100 100 100 29 88 100 100 100
100 100 100 100 100 100 79 85 55 100 100 100 100 100 99 99 69 24 24 99 71 100 100 100 100 100 100
100 100 100 100 92 100 100 98 59 100 100 100 100 100 5 2 0 0 0 2 85 93 100 100 100 100 100
100 100 100 100 100 100 100 100 95 100 100 100 100 99 6 5 0 0 0 0 3 5 100 50 46 41 59
100 100 100 98 100 100 100 100 100 100 100 100 100 26 15 5 0 0 0 0 0 1 5 8 20 98 100
100 100 100 100 100 100 100 100 100 100 100 100 100 29 5 5 5 5 5 5 1 3 5 5 5 5 5
100 100 100 100 100 100 100 100 100 100 100 100 97 5 5 5 5 11 16 5 5 4 5 5 5 5 5
100 100 100 100 100 100 100 100 100 100 100 100 38 41 9 5 11 26 20 5 13 22 19 16 5 5 5
100 100 100 100 100 100 100 100 100 100 100 100 100 97 36 18 46 5 5 29 23 30 6 5 5 5 5
100 100 100 100 100 100 100 100 100 100 100 100 100 100 66 42 6 5 5 5 5 10 16 14 7 5 5
100 100 100 100 100 100 100 100 100 100 100 100 100 100 100 60 15 5 9 5 6 25 5 5 6 16 28
100 100 100 100 100 100 100 100 100 100 100 100 100 74 93 78 62 5 33 47 58 6 11 5 5 11 83
100 100 100 100 100 100 100 100 100 100 100 100 100 100 100 99 86 87 58 35 11 76 46 5 6 9 12
100 100 100 100 100 100 100 100 100 100 100 100 94 92 91 83 83 83 64 50 74 58 5 5 5 5 10
100 100 100 100 100 100 100 100 100 100 100 100 100 99 100 98 90 96 43 73 47 22 51 57 5 5 5
100 100 100 100 100 100 100 100 100 100 100 100 100 100 100 100 81 84 92 83 63 46 52 99 43 5 5
100 100 100 100 100 97 100 100 100 100 100 100 100 100 100 92 34 7 82 78 73 80 46 73 88 5 5

GFSFLT2_prec_cloud_087.txt.gz
Cloud_Cover
100 100 100 100 100 100 100 100 100 100 100 100 98 100 100 100 100 100 100 100 100 100 92 3 50 48 38
100 100 100 99 100 100 98 100 100 100 100 27 100 100 100 100 99 99 82 100 100 100 100 100 100 100 100
100 100 100 100 100 100 100 100 100 100 95 100 100 100 100 100 100 92 6 40 80 92 100 100 100 100 100
100 100 100 100 100 100 100 100 100 100 100 100 100 100 100 100 100 99 7 5 26 97 73 100 100 100 100
100 100 100 100 100 100 100 100 100 100 100 100 100 100 100 100 100 100 8 5 5 10 76 10 100 95 90
100 100 100 100 100 100 100 100 100 100 100 100 100 100 100 100 100 100 5 5 5 5 5 5 5 5 5
100 100 100 100 100 100 100 100 100 100 100 100 100 100 100 100 100 77 42 17 17 5 5 5 5 5 5
100 100 100 100 100 100 100 100 100 100 100 100 100 100 100 100 100 100 90 5 10 9 21 28 11 5 5
100 100 100 100 100 100 100 100 100 100 100 100 100 100 100 100 100 100 92 97 90 66 49 41 21 5 5
100 100 100 100 100 100 100 100 100 100 100 100 100 100 100 100 100 100 100 72 16 5 5 5 5 5 5
100 100 100 100 100 100 100 100 100 100 100 100 100 100 100 100 100 100 100 22 25 26 6 7 16 17 46
100 100 100 100 100 100 100 100 100 100 100 100 100 100 100 100 100 99 96 56 40 34 59 21 5 6 48
100 100 100 100 100 100 100 100 100 100 100 100 100 100 100 100 100 98 100 96 70 82 52 9 12 12 23
100 100 100 100 100 100 100 100 100 100 100 100 100 100 100 100 100 56 90 92 100 94 29 19 20 14 12
100 100 100 100 100 100 100 100 100 100 100 100 100 100 100 100 100 100 100 84 69 85 57 70 36 39 6
100 100 100 100 99 100 97 100 100 100 100 100 100 100 100 100 100 100 96 87 69 65 70 100 89 5 6
100 100 100 100 100 99 99 100 99 100 100 100 100 100 100 100 100 100 100 83 74 82 35 99 100 91 14

GFSFLT2_prec_cloud_090.txt.gz
Cloud_Cover
100 100 100 100 100 100 100 100 100 100 93 100 100 100 100 100 100 100 100 100 100 100 100 5 0 1 4
100 100 100 100 100 100 100 100 100 100 98 100 100 100 100 100 100 100 100 100 100 100 100 99 40 18 48
100 100 100 100 100 100 100 100 100 100 100 100 100 100 100 100 100 100 100 100 100 100 100 100 100 100 100
100 100 100 100 100 100 100 100 100 100 100 100 100 100 100 100 100 100 100 100 100 100 100 100 100 100 100
100 100 100 100 89 68 88 100 100 100 100 100 100 100 100 100 100 100 100 100 100 100 90 99 100 100 100
100 100 100 100 99 100 100 100 100 100 100 100 100 100 100 100 100 100 100 100 100 100 52 6 89 100 47
100 100 100 100 100 100 99 99 100 100 100 100 100 100 100 100 100 100 100 100 100 100 100 92 100 77 41
88 100 100 100 100 100 100 100 100 100 100 100 100 100 100 100 100 100 100 100 100 100 100 100 98 91 58
100 100 100 100 100 100 100 100 100 100 100 100 100 100 100 100 100 100 100 100 100 100 100 100 98 26 5
100 100 100 100 100 100 100 100 100 100 100 100 100 100 100 100 100 100 100 100 100 100 100 100 100 95 45
100 100 100 100 100 100 100 100 100 100 100 100 100 100 100 100 100 100 100 100 100 100 100 100 100 90 84
100 100 100 100 100 100 100 100 100 100 100 100 100 100 100 100 100 100 100 100 100 100 100 100 100 100 97
100 100 100 100 100 100 100 100 100 100 100 100 100 100 100 100 100 100 100 100 100 100 100 100 100 100 66
100 100 100 100 100 100 100 100 100 100 100 100 100 100 100 100 100 100 100 100 100 100 100 100 100 66 27
96 65 79 95 100 100 100 100 100 100 100 100 100 100 100 100 100 100 100 100 100 100 100 100 89 74 56
96 88 97 95 100 100 100 100 100 100 100 100 100 100 100 100 100 100 100 100 100 100 100 100 100 100 80
98 95 100 97 100 99 100 100 100 100 87 75 74 69 98 100 90 100 73 86 100 100 100 100 100 57 42